Regional Weather Roundup
Issued by NWS

Home | Current Version | Previous Version | Graphics & Text | Print | Product List | Glossary On
Versions: 1 2 3 4 5 6 7 8 9 10 11 12 13 14 15 16 17 18 19 20 21 22 23 24 25 26 27
000
ASUS45 KSLC 220310
RWRUT

UTAH REGIONAL WEATHER ROUNDUP
NATIONAL WEATHER SERVICE SALT LAKE CITY UT
900 PM MDT THU SEP 21 2017

UTZ001>011-023>025-220400-

NORTHERN UTAH

CITY           SKY/WX    TMP DP  RH WIND       PRES   REMARKS
BRIGHAM CITY   CLOUDY    42  38  84 W5        29.84R
HILL AFB       LGT RAIN  41  40  95 W8        29.83R
LOGAN          RAIN      42  40  92 W5        29.81R
OGDEN          LGT RAIN  42  40  92 W7        29.84R
SALT LAKE CITY RAIN      46  43  89 NW9       29.86R FOG
TOOELE VALLEY  RAIN      37  36  93 NW6       29.90R WCI  33
WENDOVER       CLOUDY    43  38  82 S6        29.84S
HEBER CITY     CLOUDY    52  36  54 W7G17     29.72R
WEST JORDAN    CLOUDY    41  41 100 NW9G18    29.86R

$$

UTZ011>015-024>027-220400-

CENTRAL/NORTHEAST UTAH

CITY           SKY/WX    TMP DP  RH WIND       PRES   REMARKS
PROVO AIRPORT  LGT RAIN  47  43  86 NW15      29.81R
MOAB/CANYONLAN PTCLDY    80  23  12 S25G37    29.59S
DELTA          CLOUDY    37  37 100 N13G18    29.84R WCI  29
PRICE          MOCLDY    68  24  19 S16G35    29.64R
RICHFIELD      PTCLDY    54  37  54 CALM      29.73R
ROOSEVELT      PTCLDY    72  27  18 S20G28    29.62S
VERNAL         CLEAR     70  28  21 S6        29.61S

$$

UTZ013>016-019>022-027-220400-

SOUTHERN UTAH

CITY           SKY/WX    TMP DP  RH WIND       PRES   REMARKS
BRYCE CANYON   PTCLDY    55  30  38 SW17G29   29.85S
CEDAR CITY     CLOUDY    62  39  42 S18G30    29.73R
MILFORD        TSTM      40  38  93 N26       29.80R FOG     WCI  29
ST GEORGE      CLOUDY    74  42  31 W21       29.63S
HANKSVILLE     PTCLDY    77  28  16 SW21      29.63R
KANAB          PTCLDY    68  30  24 S13G25    29.77R
BLANDING         N/A     68  22  17 S18G24    29.88R

$$

REGIONAL REPORTS     COLORADO/ARIZONA

CITY           SKY/WX    TMP DP  RH WIND       PRES   REMARKS
CRAIG, CO      CLEAR     55  25  31 CALM      29.75S
GRAND JUNCTION CLOUDY    76  20  12 SE10      29.67R
RIFLE, CO      CLOUDY    68  16  13 SE6       29.72S
MONTROSE, CO   CLOUDY    74  17  11 SE17G29   29.80R
CORTEZ, CO     CLOUDY    70  18  13 SW13G25   29.86R
PAGE, AZ       MOCLDY    76  32  20 S12G20    29.70R
GRAND CANYON   CLOUDY    61  36  39 SW14G28   29.91R
KINGMAN, AZ    PTCLDY    71  37  28 S22       29.73R
FLAGSTAFF, AZ  CLEAR     58  35  42 S20G31    29.95S

$$

REGIONAL REPORTS    NEVADA/IDAHO/WYOMING

CITY           SKY/WX    TMP DP  RH WIND       PRES   REMARKS
LAS VEGAS, NV  PTCLDY    72  37  28 SW21G37   29.65R
ELY, NY        LGT SNOW  32  32 100 S3        29.85S VSB 1
ELKO, NV       CLOUDY    40  35  83 CALM      29.84R
POCATELLO, ID  RAIN      41  40  96 S5        29.83R
BURLEY, ID     CLOUDY    44  40  85 CALM      29.81F
FORT BRIDGER,    N/A     53  41  64 W18G25    29.72F
EVANSTON, WY   CLOUDY    42  42 100 W6        29.77R
ROCK SPRINGS,  CLEAR     63  23  21 S17G26    29.69S
KEMMERER, WY     N/A     43  41  93 SW18G24   29.74S

$$




USA.gov is the U.S. government's official web portal to all federal, state and local government web resources and services.